星链-6059 (STARLINK-6059 )

导读

STARLINK-6059是美国SpaceX星链卫星互联网项目的卫星,于2023年5月31日发射。该卫星运行在近地轨道,近地点高度约570km,远地点约573km,轨道倾角约70度。它是星链全球高速互联网星座组网的组成部分,旨在为全球偏远、无基础设施覆盖区域提供低延迟宽带网络服务,目前已在轨稳定运行近三年,每日绕地球约15圈,参与完成星座覆盖能力的持续补网升级。

基本信息
目录编号:
56814
目录名称:
STARLINK-6059
国际标识:
2023-078AZ
轨道中心:
EARTH
卫星名称:
星链-6059
卫星全名:
星链-6059 (STARLINK-6059 )
卫星状态:
在轨 (已飞行1110 天)
发射日期:
2023-05-31 UTC
国别 :
美国 (US)
星等 :
--
轨道信息
数据来源 国际轨道数据 AOE轨道数据
星历时间 2026-06-14T21:26:50+0800
9小时前
查看轨道信息
2026-06-14T03:00:00+0800
1天前
查看轨道信息
半长轴 6950.196km 6950.19km
偏心率 0.00029 0.0002945
轨道倾角 70.000° 70.000°
近地点辐角 263.209° 263.876°
升交点赤经 100.084° 102.021°
平近点角 96.874° 271.397°
近地点 570.043km 570.006km
远地点 574.075km 574.1km
周期 96.107分钟 96.107分钟
每日圈数 14.98329 14.983311
详细信息
固有亮度:
5
最大亮度:
2.5
卫星平台:
Starlink v1.5
覆盖范围:
全球
运营商:
太空探索技术公司
运营商所在国:
美国
制造商(研发单位):
太空探索技术公司
制造商所在国:
美国
使用方式:
暂无
卫星简介
星链(Starlink)计划是由太空探索技术公司(SpaceX)提出的一个巨型低轨卫星互联网星座项目,计划在2019年至2024年间在太空搭建由约1.2万颗卫星组成的“星链”网络,其中1584颗将部署在地球上空550千米处的近地轨道,并从2020年开始工作。该卫星仍在工作。
2D轨道图
3D轨道图
轨道高度分析图
轨道倾角分析图
轨道综合分析图
查看轨道综合分析图